Asheboro, NC

1:34 PM EST on December 10, 2016 (GMT -0500)
Asheboro Municipal

Weather History for KHBI - March, 2013

Change the Weather History Date:

Thursday, March 21, 2013

  Actual Average Record
Temperature  
Mean Temperature 38 °F -  
Max Temperature 45 °F 65 °F 86 °F (1968)
Min Temperature 30 °F 41 °F 16 °F (1965)
Degree Days  
Heating Degree Days 28    
Moisture  
Dew Point 15 °F    
Average Humidity 40    
Maximum Humidity 66    
Minimum Humidity 24    
Precipitation  
Precipitation 0.00 in - - ()
Sea Level Pressure  
Sea Level Pressure 29.86 in    
Wind  
Wind Speed 6 mph (NW)    
Max Wind Speed 15 mph    
Max Gust Speed 24 mph    
Visibility 10 miles    
Events Rain    
Averages and records for this station are not official NWS values.
T = Trace of Precipitation, MM = Missing Value Source: NWS Daily Summary

Daily Weather History Graph

Daily Weather History Graph

Search for Another Location

Airport or City:

Trip Planner

Search our weather history database for the weather conditions in past years. The results will help you decide how hot, cold, wet, or windy it might be!

Date:

Astronomy

Mar. 21, 2013 Rise Set
Actual Time 7:21 AM EDT 7:32 PM EDT
Civil Twilight 6:55 AM EDT 7:57 PM EDT
Nautical Twilight 6:26 AM EDT 8:27 PM EDT
Astronomical Twilight 5:56 AM EDT 8:57 PM EDT
Moon 2:10 PM EDT (3/21) 3:32 AM EDT (3/21)
Length of Visible Light 13h 01m
Length of Day
12h 10m
Waxing Gibbous, 68% of the Moon is Illuminated
Mar 21
Waxing Gibbous
Mar 27
Full
Apr 3
Last Quarter
Apr 10
New
Apr 18
First Quarter

Hourly Weather History & Observations

Time (EDT) Temp. Windchill Dew Point Humidity Pressure Visibility Wind Dir Wind Speed Gust Speed Precip Events Conditions
12:15 AM 45.5 °F 43.2 °F 30.0 °F 55% 29.83 in 10.0 mi SW 4.6 mph - N/A Rain Light Rain
12:55 AM 44.6 °F 41.4 °F 30.4 °F 57% 29.78 in 10.0 mi SSE 5.8 mph - N/A Rain Light Rain
1:15 AM 43.9 °F - 30.7 °F 60% 29.78 in 10.0 mi Calm Calm - N/A   Overcast
1:35 AM 43.5 °F - 30.4 °F 60% 29.78 in 10.0 mi Calm Calm - N/A   Scattered Clouds
1:55 AM 41.0 °F - 30.4 °F 66% 29.79 in 10.0 mi Calm Calm - N/A   Scattered Clouds
2:15 AM 42.3 °F 37.9 °F 27.7 °F 56% 29.80 in 10.0 mi NW 6.9 mph - N/A   Scattered Clouds
2:35 AM 42.6 °F 39.0 °F 25.3 °F 51% 29.81 in 10.0 mi WNW 5.8 mph 16.1 mph N/A   Clear
2:55 AM 41.9 °F 36.9 °F 25.7 °F 53% 29.80 in 10.0 mi NNW 8.1 mph - N/A   Scattered Clouds
3:15 AM 41.2 °F 38.2 °F 26.1 °F 55% 29.80 in 10.0 mi NW 4.6 mph - N/A   Scattered Clouds
3:35 AM 40.5 °F - 26.1 °F 57% 29.80 in 10.0 mi Calm Calm - N/A   Scattered Clouds
3:55 AM 39.9 °F - 26.4 °F 59% 29.79 in 10.0 mi Calm Calm - N/A   Clear
4:15 AM 39.4 °F 36.1 °F 26.6 °F 60% 29.79 in 10.0 mi WNW 4.6 mph - N/A   Scattered Clouds
4:35 AM 38.8 °F - 26.6 °F 61% 29.79 in 10.0 mi Calm Calm - N/A   Scattered Clouds
4:55 AM 38.1 °F 33.7 °F 25.9 °F 61% 29.79 in 10.0 mi NNW 5.8 mph - N/A   Scattered Clouds
5:15 AM 37.9 °F 32.7 °F 22.3 °F 53% 29.80 in 10.0 mi NNW 6.9 mph - N/A   Mostly Cloudy
5:35 AM 37.4 °F 31.4 °F 20.3 °F 50% 29.81 in 10.0 mi NW 8.1 mph - N/A   Scattered Clouds
5:55 AM 36.5 °F 31.0 °F 19.9 °F 51% 29.81 in 10.0 mi NW 6.9 mph - N/A   Clear
6:15 AM 35.6 °F 31.7 °F 19.8 °F 53% 29.81 in 10.0 mi NW 4.6 mph - N/A   Clear
6:35 AM 35.1 °F 28.6 °F 18.9 °F 52% 29.82 in 10.0 mi NW 8.1 mph - N/A   Clear
6:55 AM 34.3 °F 28.4 °F 18.1 °F 52% 29.82 in 10.0 mi NNW 6.9 mph - N/A   Clear
7:15 AM 33.8 °F 28.6 °F 18.0 °F 52% 29.83 in 10.0 mi NW 5.8 mph - N/A   Clear
7:35 AM 33.1 °F 28.7 °F 17.8 °F 53% 29.83 in 10.0 mi NW 4.6 mph - N/A   Clear
7:55 AM 32.9 °F 29.8 °F 18.0 °F 54% 29.84 in 10.0 mi NW 3.5 mph - N/A   Clear
8:15 AM 33.4 °F 28.1 °F 18.1 °F 54% 29.85 in 10.0 mi NNW 5.8 mph - N/A   Clear
8:35 AM 34.0 °F 28.8 °F 17.1 °F 50% 29.85 in 10.0 mi NNW 5.8 mph - N/A   Clear
8:55 AM 34.7 °F 28.1 °F 16.0 °F 46% 29.85 in 10.0 mi NNW 8.1 mph - N/A   Clear
9:15 AM 34.9 °F 26.6 °F 13.5 °F 41% 29.86 in 10.0 mi NNW 11.5 mph - N/A   Clear
9:35 AM 34.9 °F 27.1 °F 13.3 °F 41% 29.86 in 10.0 mi NW 10.4 mph 17.3 mph N/A   Clear
9:55 AM 35.6 °F 28.6 °F 13.8 °F 41% 29.86 in 10.0 mi NW 9.2 mph - N/A   Clear
10:15 AM 36.1 °F 29.3 °F 12.6 °F 38% 29.87 in 10.0 mi WNW 9.2 mph 17.3 mph N/A   Clear
10:35 AM 36.5 °F 29.7 °F 8.6 °F 31% 29.87 in 10.0 mi NNW 9.2 mph 16.1 mph N/A   Clear
10:55 AM 36.7 °F 29.9 °F 8.2 °F 31% 29.86 in 10.0 mi NW 9.2 mph 16.1 mph N/A   Clear
11:15 AM 37.6 °F 31.0 °F 7.2 °F 28% 29.86 in 10.0 mi NW 9.2 mph 18.4 mph N/A   Clear
11:35 AM 37.6 °F 30.0 °F 4.5 °F 25% 29.86 in 10.0 mi WNW 11.5 mph 19.6 mph N/A   Clear
11:55 AM 37.8 °F 30.7 °F 3.7 °F 24% 29.86 in 10.0 mi NW 10.4 mph 24.2 mph N/A   Clear
12:15 PM 38.3 °F 31.9 °F 6.4 °F 27% 29.85 in 10.0 mi NNW 9.2 mph 17.3 mph N/A   Clear
1:15 PM 38.7 °F 32.9 °F 7.3 °F 27% 29.86 in 10.0 mi NW 8.1 mph 19.6 mph N/A   Clear
1:55 PM 39.9 °F 32.5 °F 9.3 °F 28% 29.85 in 10.0 mi NW 12.7 mph 23.0 mph N/A   Clear
2:15 PM 40.8 °F 32.9 °F 9.5 °F 28% 29.84 in 10.0 mi North 15.0 mph 19.6 mph N/A   Clear
2:35 PM 40.6 °F 34.8 °F 9.5 °F 28% 29.83 in 10.0 mi West 9.2 mph - N/A   Scattered Clouds
2:55 PM 42.1 °F 35.2 °F 8.6 °F 25% 29.82 in 10.0 mi WSW 12.7 mph 20.7 mph N/A   Scattered Clouds
3:15 PM 41.7 °F 38.0 °F 7.2 °F 24% 29.83 in 10.0 mi West 5.8 mph 20.7 mph N/A   Scattered Clouds
3:35 PM 42.1 °F 35.7 °F 7.9 °F 25% 29.83 in 10.0 mi West 11.5 mph 17.3 mph N/A   Scattered Clouds
3:55 PM 41.2 °F 34.5 °F 7.7 °F 25% 29.83 in 10.0 mi NW 11.5 mph 16.1 mph N/A   Scattered Clouds
4:15 PM 42.3 °F 34.8 °F 7.5 °F 24% 29.84 in 10.0 mi West 15.0 mph 24.2 mph N/A   Scattered Clouds
4:35 PM 42.3 °F 36.8 °F 7.7 °F 24% 29.84 in 10.0 mi West 9.2 mph 19.6 mph N/A   Scattered Clouds
4:55 PM 42.4 °F 36.1 °F 7.7 °F 24% 29.85 in 10.0 mi NW 11.5 mph 23.0 mph N/A   Scattered Clouds
5:15 PM 41.7 °F 36.7 °F 8.4 °F 25% 29.85 in 10.0 mi WNW 8.1 mph 18.4 mph N/A   Clear
5:55 PM 41.0 °F 34.3 °F 8.1 °F 26% 29.87 in 10.0 mi NW 11.5 mph 17.3 mph N/A   Clear
6:15 PM 40.6 °F 33.8 °F 8.2 °F 26% 29.88 in 10.0 mi NW 11.5 mph 16.1 mph N/A   Clear
6:35 PM 40.1 °F 34.7 °F 8.1 °F 27% 29.89 in 10.0 mi WNW 8.1 mph 17.3 mph N/A   Clear
6:55 PM 39.2 °F 33.0 °F 7.7 °F 27% 29.89 in 10.0 mi NW 9.2 mph 18.4 mph N/A   Clear
7:15 PM 38.3 °F 33.2 °F 7.9 °F 28% 29.90 in 10.0 mi NNW 6.9 mph - N/A   Clear
7:35 PM 37.6 °F 34.0 °F 7.7 °F 29% 29.92 in 10.0 mi NW 4.6 mph - N/A   Clear
7:55 PM 36.9 °F 30.7 °F 7.9 °F 30% 29.92 in 10.0 mi NNW 8.1 mph - N/A   Clear
8:15 PM 36.0 °F 32.1 °F 8.4 °F 32% 29.93 in 10.0 mi NNW 4.6 mph - N/A   Clear
8:35 PM 35.6 °F 29.2 °F 8.2 °F 32% 29.94 in 10.0 mi NNW 8.1 mph - N/A   Clear
8:55 PM 34.9 °F 30.8 °F 8.6 °F 34% 29.96 in 10.0 mi NNW 4.6 mph - N/A   Clear
9:15 PM 34.2 °F 30.0 °F 8.8 °F 35% 29.96 in 10.0 mi NNW 4.6 mph - N/A   Clear
9:55 PM 32.5 °F - 8.6 °F 37% 29.98 in 10.0 mi Calm Calm - N/A   Clear
10:15 PM 32.0 °F 25.6 °F 8.8 °F 38% 29.98 in 10.0 mi North 6.9 mph - N/A   Clear
10:55 PM 31.6 °F 27.0 °F 8.4 °F 38% 29.99 in 10.0 mi NNW 4.6 mph - N/A   Clear
11:15 PM 31.3 °F 27.9 °F 9.0 °F 39% 30.00 in 10.0 mi North 3.5 mph - N/A   Clear
11:35 PM 30.4 °F - 9.5 °F 42% 30.00 in 10.0 mi Calm Calm - N/A   Clear
11:55 PM 30.2 °F 26.7 °F 10.0 °F 43% 30.01 in 10.0 mi North 3.5 mph - N/A   Clear